Regional Weather Roundup
Issued by NWS

Home | Current Version | Previous Version | Text Only | Print | Product List | Glossary On
Versions: 1 2 3 4 5 6 7 8 9 10 11 12 13 14 15 16 17 18 19 20 21 22 23 24 25 26 27 28 29 30 31 32 33 34 35 36 37 38 39 40 41 42 43 44 45 46 47 48 49 50
916
ASUS44 KBMX 280010
RWRAL

ALABAMA REGIONAL WEATHER ROUNDUP
NATIONAL WEATHER SERVICE BIRMINGHAM AL
700 PM CDT FRI MAY 27 2016

NOTE: "FAIR" INDICATES FEW OR NO CLOUDS BELOW 12,000 FEET
WITH NO SIGNIFICANT WEATHER AND/OR OBSTRUCTIONS TO VISIBILITY.

THE REMARK "TC" DENOTES TEMPERATURE IN DEGREES CELSIUS.

ALZ001>011-014-016>018-020-280100-
NORTH ALABAMA

CITY           SKY/WX    TMP DP  RH WIND       PRES   REMARKS
MUSCLE SHOALS  CLOUDY    81  64  56 S6        29.96R
6HR MIN TEMP:  81; 6HR MAX TEMP:  87;

HUNTSVILLE     CLOUDY    82  64  54 SW5       29.96R
6HR MIN TEMP:  82; 6HR MAX TEMP:  90;

DECATUR        CLOUDY    80  65  59 S6        29.97R
6HR MIN TEMP:  80; 6HR MAX TEMP:  87;

HALEYVILLE     FAIR      78  65  63 S7        29.99R
6HR MIN TEMP:  78; 6HR MAX TEMP:  84;

GADSDEN        CLOUDY    83  65  54 S6        29.98R
6HR MIN TEMP:  83; 6HR MAX TEMP:  89;

$$

ALZ012-013-022-023-030>036-040>044-280100-
WEST CENTRAL ALABAMA

CITY           SKY/WX    TMP DP  RH WIND       PRES   REMARKS
TUSCALOOSA     CLOUDY    82  65  56 S7        29.95R
6HR MIN TEMP:  82; 6HR MAX TEMP:  88;

$$

ALZ015-024>027-033>036-040>044-280100-
CENTRAL ALABAMA

CITY           SKY/WX    TMP DP  RH WIND       PRES   REMARKS
BIRMINGHAM     CLOUDY    83  61  47 S8        29.99R
MONTGOMERY     CLOUDY    84  63  49 SE5       29.96R
6HR MIN TEMP:  84; 6HR MAX TEMP:  91;

SHELBY CO ARPT CLOUDY    82  62  50 SE7       29.97R
6HR MIN TEMP:  82; 6HR MAX TEMP:  88;

MAXWELL AFB    CLOUDY    85  62  45 SE9       29.96R
6HR MIN TEMP:  85; 6HR MAX TEMP:  90;

GREENVILLE     FAIR      82  61  48 SE3       29.96R
6HR MIN TEMP:  82; 6HR MAX TEMP:  89;

$$

ALZ019-021-028-029-037-038-045>048-280100-
EAST CENTRAL ALABAMA

CITY           SKY/WX    TMP DP  RH WIND       PRES   REMARKS
ANNISTON       PTCLDY    83  61  47 CALM      29.99R
6HR MIN TEMP:  83; 6HR MAX TEMP:  88;

ALEXANDER CITY CLOUDY    80  68  65 SE3       29.99R
6HR MIN TEMP:  80; 6HR MAX TEMP:  88;

AUBURN         CLEAR    N/A N/A N/A SE6       30.00S
$$

ALZ051>064-280100-
SOUTHWEST ALABAMA

CITY           SKY/WX    TMP DP  RH WIND       PRES   REMARKS
MOBILE         CLOUDY    78  69  73 S12       29.97R
6HR MIN TEMP:  78; 6HR MAX TEMP:  86;

BROOKLEY FIELD CLOUDY    79  70  74 SE13      29.97R
6HR MIN TEMP:  79; 6HR MAX TEMP:  84;

EVERGREEN      CLOUDY    81  65  58 SE7       29.96R
6HR MIN TEMP:  81; 6HR MAX TEMP:  87;

$$

ALZ049-050-065>069-280100-
SOUTHEAST ALABAMA

CITY           SKY/WX    TMP DP  RH WIND       PRES   REMARKS
DOTHAN         CLEAR     82  54  37 SE7       30.00R
6HR MIN TEMP:  82; 6HR MAX TEMP:  88;

OZARK          PTCLDY    82  60  46 SE5       29.96R
6HR MIN TEMP:  82; 6HR MAX TEMP:  89; 6HR PCP: TRACE;

TROY           CLOUDY    81  63  54 SE6       29.97S
6HR MIN TEMP:  81; 6HR MAX TEMP:  90;

EUFAULA        FAIR      84  58  40 SE6       29.97R
6HR MIN TEMP:  84; 6HR MAX TEMP:  92;

$$




USA.gov is the U.S. government's official web portal to all federal, state and local government web resources and services.